Location: Ab? ar R?sh Ba?r?
(24.1861°N, 32.8847°E)
Time: 13:21:12
(UTC+00:00)

Milstar 3 Cent rocket - Pass Details

Date: 04 June 2022
Orbit: 706 x 5146 km, 28.3° (Epoch: 28 June)

Event Time Altitude Azimuth Distance (km) Brightness Sun altitude
Rises 16:58:12 0° 289° (WNW) 9,425 9.9 -5.8°
Reaches altitude 10° 17:05:50 10° 286° (WNW) 8,037 8.8 -7.4°
Maximum altitude 17:30:52 58° 215° (SW) 3,209 5.1 -12.3°
Enters shadow 17:41:22 15° 141° (SE) 3,827 5.0 -14.3°
